Regional Weather Roundup
Issued by NWS State College, PA

Home | Current Version | Previous Version | Text Only | Print | Product List | Glossary Off
Versions: 1 2 3 4 5 6 7 8 9 10 11 12 13 14 15 16 17 18 19 20 21 22 23 24 25 26 27 28 29 30 31 32 33 34 35 36 37 38 39 40 41 42 43 44 45 46 47 48 49 50

000
ASUS41 KCTP 121103
RWRCTP

REGIONAL WEATHER ROUNDUP
NATIONAL WEATHER SERVICE STATE COLLEGE PA
600 AM EST TUE DEC 12 2017

Note: "fair" indicates few or no clouds below 12,000 feet with no
significant weather and/or obstructions to visibility.

* = STATION THAT DOES NOT REPORT PRECIPITATION /E.G. RAIN...SNOW...ETC/
    THUNDER OR FOG.

PAZ002>004-007>009-013>016-020>023-029>032-121200-
WESTERN PENNSYLVANIA

CITY           SKY/WX    TMP DP  RH WIND       PRES   REMARKS
ERIE           LGT SNOW  33  29  85 NW9       29.55S FOG
MEADVILLE      CLOUDY    29  29 100 W8        29.54R FOG
FRANKLIN*      LGT SNOW  29  28  96 W9        29.53R FOG
NEW CASTLE     LGT SNOW  31  30  96 W10       29.59R FOG
BEAVER COUNTY  NOT AVBL
BUTLER*        MIX PCPN  32  31  96 W10       29.58R
PITTSBURGH INT FLURRIES  37  30  75 W10G24    29.58R
PITTSBURGH     CLOUDY    37  27  67 W9G26     29.57R
INDIANA*       CLOUDY    37  30  75 W17G28    29.56S
LATROBE        CLOUDY    39  27  60 SW17G24   29.56F
WASHINGTON CO* CLOUDY    38  28  67 W13       29.62R
$$

PAZ004>006-010>012-017>019-024>028-033>037-041-042-045-046-049>053-121200-
CENTRAL PENNSYLVANIA

CITY           SKY/WX    TMP DP  RH WIND       PRES   REMARKS
BRADFORD       LGT SNOW  30  29  96 VRB5      29.44F FOG
DUBOIS         LGT SNOW  32  30  92 SW14      29.48S FOG
CLEARFIELD     LGT SNOW  33  33 100 SW5       29.51S FOG
JOHNSTOWN      CLOUDY    36  26  67 SW17G25   29.50S
ALTOONA        CLOUDY    37  27  67 SW12      29.54S
STATE COLLEGE  FLURRIES  34  28  80 CALM      29.54S
WILLIAMSPORT   LGT SNOW  38  30  73 SE10      29.55F
SELINSGROVE    CLOUDY    37  30  75 CALM      29.59F
FT INDIANTOWN  CLOUDY    35  31  86 CALM      29.62F
CAPITAL CITY   CLOUDY    38  30  73 CALM      29.61F
HARRISBURG     CLOUDY    36  32  85 SE3       29.60F
YORK           CLOUDY    39  31  72 CALM      29.60F
$$

PAZ038>040-043-044-047-048-054-055-060>062-067>071-121200-
EASTERN PENNSYLVANIA

CITY           SKY/WX    TMP DP  RH WIND       PRES   REMARKS
SCRANTON       CLOUDY    37  30  75 VRB5      29.57F
MOUNT POCONO   FLURRIES  30  29  96 SE13G21   29.57F
ALLENTOWN      CLOUDY    39  29  67 SE9       29.64F
QUAKERTOWN*    CLOUDY    37  32  81 S3        29.64F
READING        CLOUDY    39  32  76 S6        29.63F
LANCASTER      CLOUDY    38  34  85 SE3       29.63F
COATESVILLE    CLOUDY    37  32  81 VRB6      29.64S
POTTSTOWN      CLOUDY    37  31  78 CALM      29.66F
BLUE BELL      CLOUDY    39  34  81 SE5       29.66F
DOYLESTOWN     CLOUDY    38  30  73 VRB6      29.64F
WILLOW GROVE   NOT AVBL
NORTH PHILA    NOT AVBL
PHILADELPHIA   CLOUDY    43  34  70 SE12      29.66F
$$




USA.gov is the U.S. government's official web portal to all federal, state and local government web resources and services.